Regional Weather Roundup
Issued by NWS Mobile, AL

Home | Current Version | Previous Version | Text Only | Print | Product List | Glossary On
Versions: 1 2 3 4 5 6 7 8 9 10 11 12 13 14 15 16 17 18 19 20 21 22 23 24 25 26 27 28 29 30 31 32 33 34 35 36 37 38 39 40 41 42 43 44 45 46 47 48 49 50
000
ASUS44 KMOB 301810
RWRMOB
REGIONAL WEATHER ROUNDUP
NATIONAL WEATHER SERVICE MOBILE AL
100 PM CDT TUE SEP 30 2014

NOTE: "FAIR" INDICATES FEW OR NO CLOUDS BELOW 12,000 FEET WITH NO
      SIGNIFICANT WEATHER AND/OR OBSTRUCTIONS TO VISIBILITY.

  * THESE STATIONS ARE PART OF THE UNIVERSITY OF SOUTH ALABAMA
    MESONET AND ARE NOT UNDER NWS OR FAA QUALITY CONTROL.

ALZ061>064-301900-
COASTAL ALABAMA

CITY           SKY/WX    TMP DP  RH WIND       PRES   REMARKS
MOBILE REG APT CLOUDY    78  69  73 NE6       29.93F HAZE
6HR MIN TEMP:  69; 6HR MAX TEMP:  79;

BROOKLEY FIELD CLOUDY    78  70  76 NE5       29.93F
6HR MIN TEMP:  71; 6HR MAX TEMP:  79;

USA CAMPUS*      N/A     77  68  73 CALM      29.91F
DOG RIVER*     NOT AVBL


CITY           SKY/WX    TMP DP  RH WIND       PRES   REMARKS
MOUNT VERNON*    N/A     77  66  69 N5        29.93F
SARALAND*      NOT AVBL
BAY MINETTE*   NOT AVBL
LOXLEY*          N/A     79  70  73 NE3       29.91F
ROBERTSDALE*     N/A     79  70  73 CALM      29.91F
FAIRHOPE*        N/A     79  70  73 NE3       29.91F
ELBERTA*         N/A     79  70  73 N9        29.90F
FOLEY*         NOT AVBL
GRAND BAY*       N/A     79  70  73 N6        29.90F
DAUPHIN ISLND* NOT AVBL
BON SCOUR NWR* NOT AVBL
GULF SHORES    CLOUDY    80  70  71 NE5       29.90F

$$

ALZ051>060-301900-
INTERIOR SOUTHWEST AND SOUTH CENTRAL ALABAMA

CITY           SKY/WX    TMP DP  RH WIND       PRES   REMARKS
GREENVILLE     CLOUDY    76  65  68 NE3       29.93F
6HR MIN TEMP:  69; 6HR MAX TEMP:  77;

EVERGREEN      CLOUDY    77  67  71 VRB3      29.93F
6HR MIN TEMP:  71; 6HR MAX TEMP:  78;

CASTLEBERRY*   NOT AVBL
ATMORE*          N/A     77  68  73 N5        29.94F
DIXIE*         NOT AVBL
ANDALUSIA/OPP  CLOUDY    79  66  64 NE3       29.92F
6HR MIN TEMP:  74; 6HR MAX TEMP:  79;

ANDALUSIA*     NOT AVBL
FLORALA APT    CLOUDY    75  67  76 NE6       29.93F
6HR MIN TEMP:  71; 6HR MAX TEMP:  76;

FLORALA*         N/A     73  66  78 VRB6      29.89F

$$

FLZ001>006-301900-
WESTERN FLORIDA PANHANDLE

CITY           SKY/WX    TMP DP  RH WIND       PRES   REMARKS
PENSACOLA      CLOUDY    79  67  66 NE7       29.90F
6HR MIN TEMP:  71; 6HR MAX TEMP:  79;

NAS PENSACOLA  CLOUDY    80  69  69 N7        29.89F
6HR MIN TEMP:  71; 6HR MAX TEMP:  80;

MILTON         CLOUDY    77  66  68 VRB5      29.91F
6HR MIN TEMP:  70; 6HR MAX TEMP:  77;

WHTNG S FIELD  CLOUDY    79  68  69 VRB6      29.91F
6HR MIN TEMP:  72; 6HR MAX TEMP:  79;



CITY           SKY/WX    TMP DP  RH WIND       PRES   REMARKS
WALNUT HILL*   NOT AVBL
JAY*             N/A     75  66  73 N2        29.93F
DUKE FIELD     CLOUDY    77  70  80 N6        29.91F
CRESTVIEW      CLOUDY    77  68  73 NE6       29.92F
6HR MIN TEMP:  71; 6HR MAX TEMP:  78;

VALPARAISO     CLOUDY    79  68  69 VRB6      29.89F
6HR MIN TEMP:  72; 6HR MAX TEMP:  79;

DESTIN         CLOUDY    79  69  71 N8        29.90F
6HR MIN TEMP:  74; 6HR MAX TEMP:  79;


$$

MSZ076-079-301900-
INTERIOR SOUTHEAST MISSISSIPPI

CITY           SKY/WX    TMP DP  RH WIND       PRES   REMARKS
LEAKESVILLE*     N/A     73  66  78 NE5       29.94F
AGRICOLA*      NOT AVBL

$$

MARINE OBSERVATIONS

STATION/POSITION TIME  TEMP    WIND        PRES    WAVE
                       AIR SEA DIR/SP/G            HT/PER
                 (UTC) (F)     (DEG/KT/KT) (MB)    (FT/S)
PASCAGOULA       1800   79     360/  4/  7 1012.6F
PETIT BOIS ISLND 1800   76      70/  8/ 11 1013.2F
GRAND BAY        1700   74      80/  6     1014.0S
KATRINA CUT      1700   76      70/ 10     1013.9F
CEDAR POINT      1700   74      70/  6     1013.9R
E DAUPHIN ISLAND 1700   75      70/  6/  6 1013.1F
MIDDLE BAY LIGHT 1700   79     360/  6     1012.5S
USCG MOBILE BAY  1800   77 79              1012.0F
STATE DOCKS      1800   80 80              1012.9S
MEAHER PARK      1700   78      20/  4     1012.9S
WEEKS BAY        1700   78                   N/A
FORT MORGAN      1800   77      40/  5/  7 1012.4F
12 S ORANGE BCH  1800   77 82   60/  8/ 10 1012.6F   2/ 4
PENSACOLA BAY    1800   79 78   60/  7/  8 1012.8F
64 S DAUPHIN ISL 1724   80 83   60/ 12/ 14 1012.4F   2/ 5
67 S FORT MORGAN 1700   80                 1011.9F

$$

SELECTED LOCATIONS ACROSS THE REGION

CITY           SKY/WX    TMP DP  RH WIND       PRES   REMARKS
NEW ORLEANS    MOSUNNY   86  72  62 NE12      29.89F
GULFPORT       PTSUNNY   82  72  71 SE8       29.89F
PASCAGOULA AP  CLOUDY    79  70  74 N7        29.91F
PASCAGOULA*      N/A     79  70  73 N6        29.90F
HATTIESBURG    SUNNY     83  69  62 CALM      29.92F
LAUREL         MOSUNNY   82  66  57 E5        29.94S
MERIDIAN       SUNNY     83  62  49 N6        29.93F
JACKSON        PTSUNNY   85  65  51 VRB3      29.91F
MONTGOMERY     PTSUNNY   80  63  55 VRB3      29.93F
TROY           CLOUDY    78  65  63 NE5       29.93F
KINSTON*       NOT AVBL
GENEVA*          N/A     73  66  78 NE7       29.94F
ASHFORD*       NOT AVBL
DOTHAN         CLOUDY    75  66  73 NE7       29.95F
PANAMA CITY    CLOUDY    79  68  69 N6        29.88F

$$



USA.gov is the U.S. government's official web portal to all federal, state and local government web resources and services.